Location: *
(52.2090°N, 4.1550°W)
Time: 08:50:52
(UTC+00:00)

Meteor 2-6 Rocket - Pass Details

Date: 19 July 2019
Orbit: 805 x 915 km, 81.3° (Epoch: 18 August)

Event Time Altitude Azimuth Distance (km) Brightness Sun altitude
Rises 22:26:26 0° 347° (NNW) 3,341 9.0 -12.7°
Reaches altitude 10° 22:28:49 10° 349° (NNW) 2,412 7.9 -12.9°
Maximum altitude 22:34:16 81° 76° (ENE) 841 4.2 -13.3°
Enters shadow 22:38:18 19° 163° (SSE) 1,877 5.4 -13.5°
